Lid_Strength_Index
8 9 10 10 10 10 10 10 9 9 8 8 8 8 7 6 7 6 6 6 6 7
9 10 10 10 10 10 10 10 11 11 11 10 9 9 9 8 8 7 7 7 7 8
9 10 10 11 12 12 12 12 12 12 12 11 11 11 11 10 9 9 9 9 10 10
9 10 11 12 12 13 13 13 13 12 12 12 12 11 12 12 11 11 11 11 11 11
9 10 11 12 13 13 13 13 13 13 12 12 12 12 12 12 12 12 12 11 12 12
10 11 13 13 13 13 13 13 14 13 13 12 12 12 12 12 12 12 12 12 12 12
10 11 12 12 13 13 13 14 14 14 13 13 12 12 12 12 13 13 13 12 12 13
10 11 12 13 13 13 14 14 14 14 13 12 12 12 13 13 13 13 13 13 12 12
10 11 13 13 14 14 15 15 14 14 13 12 11 11 11 12 14 13 13 14 14 13
10 11 13 13 13 14 15 15 16 15 13 13 12 11 11 11 13 14 14 14 14 14
11 12 13 13 13 14 14 15 16 15 14 13 13 11 12 12 13 14 15 14 15 15
11 13 14 14 15 14 15 16 15 15 15 15 14 11 12 13 14 15 15 14 14 14
10 12 13 14 15 14 15 15 16 15 15 14 15 11 12 12 14 16 15 15 13 11
10 12 13 14 14 15 15 16 16 16 16 15 15 15 11 11 13 14 15 15 15 14